Change the Weather History Date:

Thursday, May 9, 2013

  Actual Average Record
Temperature  
Mean Temperature 54 °F 58 °F  
Max Temperature 59 °F 70 °F 99 °F (2011)
Min Temperature 49 °F 46 °F 29 °F (1923)
Degree Days  
Heating Degree Days 11 8  
Month to date heating degree days 151 81  
Since 1 July heating degree days 6692 6504  
Cooling Degree Days 0 1  
Month to date cooling degree days 0 9  
Year to date cooling degree days 4 21  
Growing Degree Days 4 (Base 50)    
Moisture  
Dew Point 54 °F    
Average Humidity 93    
Maximum Humidity 100    
Minimum Humidity 86    
Precipitation  
Precipitation 0.18 in 0.12 in 2.20 in (1905)
Month to date precipitation 1.99 1.02  
Year to date precipitation 8.01 6.79  
Snow  
Snow 0.00 in 0.00 in - ()
Month to date snowfall T 0.2  
Since 1 July snowfall 27.3 30.7  
Snow Depth 0.00 in    
Sea Level Pressure  
Sea Level Pressure 29.97 in    
Wind  
Wind Speed 10 mph (North)    
Max Wind Speed 21 mph    
Max Gust Speed 28 mph    
Visibility 5 miles    
Events Fog , Rain    
T = Trace of Precipitation, MM = Missing Value Source: NWS Daily Summary

Daily Weather History Graph

Daily Weather History Graph

Search for Another Location

Airport or City:

Trip Planner

Search our weather history database for the weather conditions in past years. The results will help you decide how hot, cold, wet, or windy it might be!

Date:

Astronomy

May. 09, 2013 Rise Set
Actual Time 6:15 AM CDT 8:37 PM CDT
Civil Twilight 5:44 AM CDT 9:08 PM CDT
Nautical Twilight 5:05 AM CDT 9:47 PM CDT
Astronomical Twilight 4:22 AM CDT 10:31 PM CDT
Moon 6:01 AM CDT (5/9) 8:33 PM CDT (5/9)
Length of Visible Light 15h 24m
Length of Day
14h 22m
Waning Crescent, 0% of the Moon is Illuminated
May 9
Waning Crescent
May 9
New
May 17
First Quarter
May 24
Full
May 31
Last Quarter

Hourly Weather History & Observations

Time (CDT) Temp. Dew Point Humidity Pressure Visibility Wind Dir Wind Speed Gust Speed Precip Events Conditions
12:10 AM 53.6 °F 53.6 °F 100% 29.93 in 3.0 mi West 4.6 mph - N/A   Overcast
12:56 AM 54.0 °F 54.0 °F 100% 29.94 in 3.0 mi SW 3.5 mph - 0.02 in Rain Light Rain
1:03 AM 55.4 °F 53.6 °F 94% 29.93 in 2.5 mi Calm Calm - 0.02 in Rain Rain
1:12 AM 53.6 °F 53.6 °F 100% 29.93 in 3.0 mi Calm Calm - 0.02 in Rain Light Rain
1:39 AM 55.4 °F 55.4 °F 100% 29.93 in 2.5 mi SE 5.8 mph - 0.05 in Rain Rain
1:56 AM 55.0 °F 55.0 °F 100% 29.92 in 1.8 mi NW 6.9 mph - 0.11 in Rain Heavy Rain
2:07 AM 55.4 °F 53.6 °F 94% 29.92 in 3.0 mi NW 5.8 mph - 0.03 in Rain Light Rain
2:56 AM 54.0 °F 53.1 °F 97% 29.91 in 7.0 mi NW 3.5 mph - 0.04 in   Overcast
3:56 AM 54.0 °F 52.0 °F 93% 29.91 in 10.0 mi NNE 5.8 mph - N/A   Overcast
4:20 AM 53.6 °F 53.6 °F 100% 29.89 in 6.0 mi East 3.5 mph - N/A   Overcast
4:46 AM 53.6 °F 53.6 °F 100% 29.90 in 4.0 mi ENE 5.8 mph - N/A   Mostly Cloudy
4:54 AM 55.4 °F 53.6 °F 94% 29.91 in 3.0 mi East 5.8 mph - N/A   Mostly Cloudy
4:56 AM 55.0 °F 54.0 °F 96% 29.90 in 3.0 mi East 4.6 mph - N/A   Overcast
5:10 AM 55.4 °F 53.6 °F 94% 29.91 in 1.8 mi NNE 10.4 mph - N/A   Overcast
5:22 AM 55.4 °F 55.4 °F 100% 29.91 in 0.5 mi NNE 9.2 mph - N/A Fog Fog
5:38 AM 55.4 °F 55.4 °F 100% 29.92 in 1.2 mi NE 8.1 mph - N/A   Overcast
5:56 AM 55.0 °F 55.0 °F 100% 29.92 in 2.0 mi NNE 6.9 mph - N/A   Overcast
6:27 AM 55.4 °F 53.6 °F 94% 29.94 in 4.0 mi North 11.5 mph - N/A   Overcast
6:38 AM 55.4 °F 53.6 °F 94% 29.94 in 7.0 mi North 10.4 mph - N/A   Overcast
6:56 AM 54.0 °F 53.1 °F 97% 29.94 in 4.0 mi North 10.4 mph - N/A   Overcast
7:16 AM 53.6 °F 53.6 °F 100% 29.95 in 2.0 mi North 9.2 mph - N/A   Overcast
7:25 AM 55.4 °F 53.6 °F 94% 29.95 in 2.0 mi NNW 9.2 mph - N/A   Overcast
7:39 AM 55.4 °F 53.6 °F 94% 29.96 in 2.5 mi North 10.4 mph - N/A   Overcast
7:51 AM 55.4 °F 53.6 °F 94% 29.95 in 3.0 mi North 9.2 mph - N/A   Overcast
7:56 AM 55.0 °F 54.0 °F 96% 29.95 in 3.0 mi North 9.2 mph - N/A   Overcast
8:43 AM 55.4 °F 53.6 °F 94% 29.96 in 2.5 mi North 11.5 mph - N/A   Overcast
8:51 AM 55.4 °F 53.6 °F 94% 29.96 in 3.0 mi North 15.0 mph - N/A   Overcast
8:56 AM 55.9 °F 54.0 °F 93% 29.96 in 3.0 mi North 11.5 mph - N/A   Overcast
9:09 AM 55.4 °F 53.6 °F 94% 29.96 in 2.5 mi North 12.7 mph - N/A   Overcast
9:23 AM 55.4 °F 53.6 °F 94% 29.96 in 1.5 mi North 12.7 mph - N/A   Overcast
9:43 AM 55.4 °F 53.6 °F 94% 29.96 in 2.0 mi NNW 18.4 mph 23.0 mph N/A   Overcast
9:56 AM 55.0 °F 54.0 °F 96% 29.96 in 2.5 mi North 17.3 mph - N/A   Overcast
10:03 AM 55.4 °F 53.6 °F 94% 29.96 in 3.0 mi North 13.8 mph 24.2 mph N/A   Overcast
10:53 AM 57.2 °F 53.6 °F 88% 29.97 in 10.0 mi North 17.3 mph - N/A   Overcast
10:56 AM 57.0 °F 54.0 °F 89% 29.97 in 10.0 mi North 21.9 mph 26.5 mph N/A   Overcast
11:18 AM 55.4 °F 53.6 °F 94% 29.98 in 6.0 mi North 16.1 mph - N/A   Overcast
11:56 AM 57.0 °F 54.0 °F 89% 29.99 in 5.0 mi North 13.8 mph - N/A   Overcast
12:25 PM 57.2 °F 53.6 °F 88% 29.99 in 9.0 mi North 12.7 mph - N/A   Overcast
12:56 PM 57.0 °F 53.1 °F 87% 29.99 in 8.0 mi North 16.1 mph - N/A   Overcast
1:10 PM 55.4 °F 53.6 °F 94% 29.99 in 3.0 mi North 16.1 mph 25.3 mph 0.00 in Rain Light Rain
1:20 PM 55.4 °F 53.6 °F 94% 29.99 in 4.0 mi North 15.0 mph 23.0 mph 0.00 in Rain Light Rain
1:53 PM 55.4 °F 53.6 °F 94% 29.99 in 7.0 mi North 12.7 mph - 0.00 in   Overcast
1:56 PM 55.9 °F 54.0 °F 93% 29.99 in 8.0 mi North 12.7 mph - 0.00 in   Overcast
2:16 PM 57.2 °F 53.6 °F 88% 29.99 in 10.0 mi North 13.8 mph - N/A   Overcast
2:56 PM 57.0 °F 54.0 °F 89% 29.99 in 6.0 mi North 12.7 mph - 0.00 in   Overcast
3:28 PM 57.2 °F 55.4 °F 94% 29.99 in 2.5 mi North 12.7 mph 24.2 mph 0.00 in Rain Light Rain
3:54 PM 55.4 °F 53.6 °F 94% 29.99 in 2.0 mi North 16.1 mph - 0.01 in Rain Light Rain
3:56 PM 55.9 °F 54.0 °F 93% 29.99 in 2.0 mi North 16.1 mph - 0.01 in Rain Light Rain
4:00 PM 55.4 °F 53.6 °F 94% 29.99 in 1.8 mi North 16.1 mph - 0.00 in   Overcast
4:07 PM 55.4 °F 53.6 °F 94% 29.99 in 2.0 mi North 15.0 mph - 0.00 in Rain Light Rain
4:18 PM 57.2 °F 55.4 °F 94% 29.99 in 4.0 mi North 12.7 mph 20.7 mph 0.00 in Rain Light Rain
4:37 PM 57.2 °F 53.6 °F 88% 29.99 in 9.0 mi North 16.1 mph - 0.00 in   Overcast
4:56 PM 57.0 °F 54.0 °F 89% 30.00 in 10.0 mi North 12.7 mph - 0.00 in   Overcast
5:43 PM 57.2 °F 53.6 °F 88% 30.00 in 4.0 mi North 10.4 mph - 0.02 in Rain Light Rain
5:56 PM 57.0 °F 54.0 °F 89% 30.01 in 5.0 mi North 9.2 mph - 0.02 in Rain Light Rain
6:26 PM 57.2 °F 53.6 °F 88% 30.01 in 9.0 mi North 11.5 mph - 0.01 in   Overcast
6:56 PM 57.9 °F 54.0 °F 87% 30.02 in 10.0 mi North 9.2 mph - 0.01 in   Mostly Cloudy
7:56 PM 57.9 °F 54.0 °F 87% 30.01 in 10.0 mi North 12.7 mph - 0.00 in   Overcast
8:56 PM 57.0 °F 54.0 °F 89% 30.03 in 10.0 mi North 6.9 mph - 0.00 in   Mostly Cloudy
9:56 PM 54.0 °F 52.0 °F 93% 30.04 in 10.0 mi North 6.9 mph - N/A   Clear
10:56 PM 53.1 °F 51.1 °F 93% 30.06 in 10.0 mi North 6.9 mph - N/A   Clear
11:56 PM 52.0 °F 50.0 °F 93% 30.07 in 10.0 mi North 6.9 mph - N/A   Clear